Location: *
(38.9800°N, 16.0500°E)
Time: 13:54:36
(UTC+00:00)

Daily predictions for brighter satellites

Satellite Brightness Start Highest point End
(mag) Time Altitude Azimuth Time Altitude Azimuth Time Altitude Azimuth
ATLAS 2AS CENTAUR R/B 4.4 16:20:20 10° WSW 16:27:22 34° NW 16:34:21 10° NNE
Cosmos 1844 Rocket 3.6 16:26:14 10° SSE 16:31:01 29° ESE 16:35:49 10° NE
CZ-2C R/B 3.9 16:27:58 10° SE 16:32:26 29° ENE 16:37:08 10° N
H-2A R/B 2.9 16:30:29 10° S 16:34:24 67° WSW 16:38:31 10° NNW
Cosmos 1634 Rocket 4.1 16:28:09 10° N 16:34:26 89° E 16:40:44 10° S
Okean-O 4.1 16:31:51 10° ESE 16:34:33 16° ENE 16:37:14 10° NNE
H-2A R/B 3.3 16:32:25 10° ESE 16:35:34 17° ENE 16:38:46 10° NNE
Okean O Rocket 1.6 16:32:46 10° SSE 16:37:13 83° ENE 16:41:40 10° N
SMAP 3.5 16:34:36 10° S 16:39:13 69° WSW 16:43:52 10° NNW
Cosmos 1626 3.8 16:36:58 10° SSW 16:40:24 36° WNW 16:43:51 10° N
CZ-4B R/B 3.4 16:35:38 10° SSE 16:41:08 81° WSW 16:46:47 10° NNW
CZ-4B R/B 1.6 16:38:24 10° NNE 16:41:41 48° E 16:44:51 10° S
SL-24 R/B 4.4 16:37:34 10° S 16:41:51 77° WSW 16:46:22 10° NNW
CSL-04 DEB 4.4 16:38:01 10° NNE 16:42:12 71° ESE 16:46:15 10° S
Cosmos 773 Rocket 4.0 16:39:09 10° NNW 16:44:16 62° ENE 16:49:19 10° SSE
Aureole 2 Rocket 2.9 16:42:28 10° SSE 16:45:07 30° ESE 16:47:51 10° NE
Cosmos 1818 3.9 16:43:29 10° S 16:48:37 46° ESE 16:53:49 10° NE
Cosmos 1689 Rocket 3.6 16:48:09 13° ENE 16:49:31 17° E 16:51:27 10° SE
Cosmos 1603 4.2 16:47:45 10° NNW 16:53:25 67° WSW 16:59:06 10° S
CZ-2D R/B 3.6 16:50:24 10° SE 16:54:03 43° ENE 16:57:43 10° N
Meteor 2-10 Rocket 3.8 16:48:46 10° N 16:54:03 46° ENE 16:59:04 10° SSE
YAOGAN 1 3.6 16:53:13 10° ESE 16:56:43 25° ENE 17:00:15 10° NNE
Cosmos 1892 Rocket 3.4 16:52:56 10° S 16:57:16 78° E 17:01:37 10° N
Cosmos 1606 Rocket 3.7 16:54:43 10° N 16:59:07 80° W 17:03:32 10° S
TELKOM 3 4.0 16:57:15 10° W 16:59:25 36° NNW 17:01:03 16° NNE
H-2A R/B 3.6 16:55:58 10° N 17:00:05 38° WNW 17:04:05 10° SW
ATLAS 5 CENTAUR R/B 3.6 16:57:31 10° W 17:00:35 20° NW 17:03:53 10° N
SAR-Lupe-4 4.3 16:57:22 10° NE 17:00:37 31° E 17:03:48 10° SSE
Helios 1A Rocket 4.1 16:59:25 10° ESE 17:02:37 22° ENE 17:05:49 10° NNE
MOS 1 Rocket 3.0 17:05:25 10° NNE 17:09:42 70° E 17:13:57 10° S
Cosmos 2228 4.0 17:06:55 10° NNW 17:11:03 49° W 17:15:11 10° SSW
ATLAS 3B R/B 4.0 17:04:50 10° NW 17:11:30 46° WSW 17:18:23 10° S
SAR-Lupe-1 4.4 17:08:16 11° NNE 17:11:32 42° E 17:14:56 10° S
BREEZE-M DEB (TANK) 3.4 17:09:33 10° WNW 17:12:15 38° SSW 17:16:20 10° SE
SJ 16-02 1.3 17:10:26 10° S 17:14:45 60° ESE 17:18:57 11° NNE
SKYMED 2 3.8 17:11:15 10° N 17:15:35 72° WNW 17:19:54 10° SSW
Nadezhda 4 Rocket 3.9 17:09:31 10° S 17:15:43 68° E 17:21:54 10° NNE
Aureole 3 3.4 17:14:51 10° NNE 17:17:54 32° ENE 17:20:40 10° SE
Cosmos 1538 Rocket 3.9 17:12:48 10° NNW 17:17:58 71° ENE 17:23:06 10° SSE
CZ-3B R/B 3.6 17:16:44 10° N 17:19:23 22° NE 17:20:09 21° ENE
Cosmos 2263 Rocket 4.3 17:16:13 10° WSW 17:20:39 23° NW 17:25:06 10° N
Cosmos 1455 2.2 17:24:51 10° N 17:28:35 54° E 17:32:20 10° SSE
Cosmos 1703 3.5 17:26:48 10° SSE 17:30:29 44° E 17:31:37 33° NE
Cosmos 2058 Rocket 3.3 17:26:04 10° N 17:30:35 76° W 17:35:04 10° S
Cosmos 1340 3.9 17:28:52 10° SSE 17:31:00 25° SE 17:31:00 25° SE
X-37B 0.8 17:29:26 10° WSW 17:32:36 61° NNW 17:33:14 47° NNE
Meteor 2-13 Rocket 4.4 17:28:08 10° S 17:34:13 89° W 17:40:24 10° N
ARGOS 3.4 17:29:52 10° SE 17:34:54 44° ENE 17:39:58 10° N
Okean 1-7 Rocket 4.3 17:34:24 10° SSW 17:38:50 56° W 17:43:19 10° N
Cosmos 44 3.4 17:34:21 10° S 17:38:50 50° ESE 17:40:17 37° ENE
Lacrosse 5 2.2 17:39:21 10° NNW 17:44:11 43° NE 17:45:00 40° ENE
ISS -2.6 17:41:11 10° W 17:44:20 36° NNW 17:45:00 32° N
CSL-04 Debris 4.2 17:39:44 10° SSE 17:44:58 55° ENE 17:50:13 10° N
ERS-2 3.2 17:42:39 10° N 17:46:07 43° WNW 17:49:33 10° SW
COSMOS 2455 4.0 17:42:25 10° WSW 17:48:01 39° NW 17:53:39 10° NNE
CZ-2C R/B 2.9 17:45:49 29° NE 17:48:16 47° E 17:53:37 10° S
EXPRESS MD2 3.5 17:42:49 10° NW 17:49:38 67° NNE 17:50:21 55° E
Cosmos 1626 Rocket 3.5 17:45:40 10° S 17:50:02 82° W 17:54:01 13° N
Cosmos 1844 3.9 17:46:55 10° SSW 17:52:31 71° WNW 17:57:10 16° NNE
Cosmos 2026 Rocket 3.9 17:46:52 10° S 17:52:49 61° E 17:58:52 10° NNE
Cosmos 990 Rocket 3.8 17:48:56 10° S 17:54:07 72° ESE 17:56:17 35° NNE
CZ-4 R/B 2.0 17:50:26 10° S 17:54:30 59° W 17:58:32 10° NNW
Cosmos 1328 3.9 17:52:18 10° S 17:55:43 58° SE 17:55:43 58° SE
NOSS 2-1 (C) 3.5 17:57:50 10° SSW 18:00:30 49° SSW 18:00:30 49° SSW
USA 267 3.2 18:04:12 42° ENE 18:06:32 70° SE 18:13:02 10° SW
NOSS 2-1 (D) 3.9 18:03:44 10° SW 18:06:13 44° SW 18:06:13 44° SW
Hubble Space Telescope 2.8 18:05:51 10° SW 18:08:45 19° S 18:08:45 19° S
Okean-O 3.6 18:06:23 10° S 18:10:37 46° W 18:14:54 10° NNW
Meteor 1-11 4.2 18:05:35 10° S 18:11:10 61° E 18:11:10 61° E
H-2A R/B 2.6 18:09:41 10° S 18:14:30 54° W 18:19:28 10° NNW
Cosmos 1844 Rocket 4.0 18:09:30 10° SW 18:14:44 37° WNW 18:19:24 13° N
Cosmos 923 Rocket 4.1 18:14:21 10° NNW 18:19:40 75° WSW 18:23:15 21° S
Cosmos 1898 Rocket 3.6 18:17:24 10° SSW 18:22:40 74° WNW 18:23:41 56° N
Cosmos 2278 Rocket 3.6 18:18:03 10° S 18:20:26 24° SSE 18:20:26 24° SSE
Meteor 2-8 Rocket 4.4 18:19:14 10° N 18:25:19 82° W 18:31:26 10° S
Cosmos 1680 Rocket 3.5 18:21:49 10° NNW 18:26:36 74° NW 18:26:36 74° NW
Cosmos 2098 Rocket 4.3 18:22:35 10° S 18:29:27 86° W 18:36:57 10° N
CSL-04 Rocket 4.3 18:31:02 10° S 18:36:16 55° W 18:41:38 10° NNW
USA 234 4.3 18:40:19 31° N 18:40:19 31° N 18:44:50 10° NNW
SJ 16-02 4.3 18:51:52 10° W 18:53:44 12° WNW 18:55:37 10° NNW
Cosmos 2344 4.3 18:47:59 10° NNW 18:57:44 70° NE 18:59:36 63° E
Lacrosse 5 4.3 19:22:38 10° WNW 19:24:15 18° WNW 19:24:15 18° WNW
